George, South Africa

6:30 PM SAST on September 29, 2016 (GMT +0200)
George

Weather History for FAGG - October, 2012

Change the Weather History Date:

Tuesday, October 9, 2012

  Actual Average Record
Temperature  
Mean Temperature 59 °F -  
Max Temperature 65 °F 67 °F 95 °F (2002)
Min Temperature 53 °F 50 °F 42 °F (1997)
Degree Days  
Heating Degree Days 6    
Growing Degree Days 9 (Base 50)    
Moisture  
Dew Point 54 °F    
Average Humidity 86    
Maximum Humidity 94    
Minimum Humidity 76    
Precipitation  
Precipitation 0.31 in - - ()
Sea Level Pressure  
Sea Level Pressure 30.04 in    
Wind  
Wind Speed 10 mph ()    
Max Wind Speed 25 mph    
Max Gust Speed 40 mph    
Visibility 6.4 miles    
Events Rain , Thunderstorm    
Averages and records for this station are not official NWS values.
T = Trace of Precipitation, MM = Missing Value Source: Averaged Metar Reports

Daily Weather History Graph

Daily Weather History Graph

Search for Another Location

Airport or City:

Trip Planner

Search our weather history database for the weather conditions in past years. The results will help you decide how hot, cold, wet, or windy it might be!

Date:

Astronomy

Oct. 09, 2012 Rise Set
Actual Time 5:56 AM SAST 6:39 PM SAST
Civil Twilight 5:31 AM SAST 7:04 PM SAST
Nautical Twilight 5:01 AM SAST 7:34 PM SAST
Astronomical Twilight 4:30 AM SAST 8:05 PM SAST
Moon 1:46 AM SAST (10/9) 12:33 PM SAST (10/9)
Length of Visible Light 13h 33m
Length of Day
12h 43m
Last Quarter, 39% of the Moon is Illuminated
Oct 9
Last Quarter
Oct 15
New
Oct 22
First Quarter
Oct 29
Full
Nov 7
Last Quarter

Hourly Weather History & Observations

Time (SAST) Temp. Dew Point Humidity Pressure Visibility Wind Dir Wind Speed Gust Speed Precip Events Conditions
12:00 AM 55.4 °F 53.6 °F 94% 30.15 in 6.2 mi SE 17.3 mph - N/A   Mostly Cloudy
1:00 AM 55.4 °F 53.6 °F 94% 30.12 in 2.5 mi ESE 9.2 mph - N/A Rain Heavy Rain
2:00 AM 55 °F 53 °F 91% 30.12 in 5 mi East 5.8 mph - -  
2:00 AM 55.4 °F 53.6 °F 94% 30.09 in 6.2 mi East 6.9 mph - N/A Rain Light Rain
3:00 AM 55.4 °F 53.6 °F 94% 30.09 in 6.2 mi East 8.1 mph - N/A   Mostly Cloudy
4:00 AM 55.4 °F 51.8 °F 88% 30.06 in 6.2 mi ENE 6.9 mph - N/A   Mostly Cloudy
5:00 AM 53.6 °F 50.0 °F 88% 30.06 in 6.2 mi East 6.9 mph - N/A   Mostly Cloudy
6:00 AM 53.6 °F 51.8 °F 94% 30.06 in 6.2 mi East 8.1 mph - N/A   Mostly Cloudy
7:00 AM 55.4 °F 51.8 °F 88% 30.06 in 6.2 mi East 9.2 mph - N/A   Mostly Cloudy
8:00 AM 57.2 °F 53.6 °F 88% 30.06 in 6.2 mi East 12.7 mph - N/A   Mostly Cloudy
9:00 AM 59.0 °F 53.6 °F 82% 30.04 in 6.2 mi East 12.7 mph - N/A   Mostly Cloudy
10:00 AM 60.8 °F 53.6 °F 77% 30.04 in 6.2 mi East 12.7 mph - N/A   Mostly Cloudy
11:00 AM 61 °F 56 °F 79% 30.02 in 12 mi ESE 13.8 mph - -   Mostly Cloudy
11:00 AM 60.8 °F 55.4 °F 82% 30.01 in 6.2 mi East 12.7 mph - N/A   Mostly Cloudy
12:00 PM 60.8 °F 55.4 °F 82% 30.01 in 6.2 mi East 11.5 mph - N/A   Mostly Cloudy
1:00 PM 62.6 °F 57.2 °F 82% 29.98 in 6.2 mi East 11.5 mph - N/A   Mostly Cloudy
2:00 PM 63 °F 57 °F 76% 29.96 in 12 mi ESE 11.5 mph - -   Mostly Cloudy
2:00 PM 62.6 °F 57.2 °F 82% 29.95 in 6.2 mi ESE 11.5 mph - N/A   Mostly Cloudy
3:00 PM 62.6 °F 57.2 °F 82% 29.92 in 6.2 mi ESE 11.5 mph - N/A   Mostly Cloudy
4:00 PM 64.4 °F 59.0 °F 83% 29.86 in 6.2 mi East 16.1 mph - N/A   Partly Cloudy
5:00 PM 61 °F 57 °F 84% 29.92 in 4 mi South 12.7 mph - - Rain , Thunderstorm Thunderstorms and Rain
5:00 PM 60.8 °F 57.2 °F 88% 29.92 in 3.1 mi South 11.5 mph - N/A Rain , Thunderstorm Thunderstorms and Rain
6:00 PM 57.2 °F 53.6 °F 88% 30.01 in 6.2 mi West 20.7 mph - N/A Rain Light Rain
7:00 PM 53.6 °F 50.0 °F 88% 30.06 in 6.2 mi SW 25.3 mph 40.3 mph N/A   Mostly Cloudy
8:00 PM 55 °F 50 °F 79% 30.12 in 12 mi SW 12.7 mph - -   Partly Cloudy
8:00 PM 55.4 °F 50.0 °F 82% 30.09 in 6.2 mi SW 13.8 mph - N/A   Mostly Cloudy
9:00 PM 53.6 °F 50.0 °F 88% 30.12 in 4.3 mi North 4.6 mph - N/A Rain Light Rain
10:00 PM 53.6 °F 50.0 °F 88% 30.12 in 5.6 mi NW 5.8 mph - N/A Rain Light Rain
11:00 PM 53.6 °F 50.0 °F 88% 30.09 in 6.2 mi NNW 4.6 mph - N/A   Mostly Cloudy